{"data":{"norad_id":62999,"intl_designator":"2025-031U","name":"STARLINK-32658","alt_names":[],"object_type":"PAYLOAD","status":"ACTIVE","operator":null,"country":"US","launch_date":"2025-02-11","launch_site_code":"AFETR","launch_vehicle":null,"mission":null,"orbit_class":"UNKNOWN","rcs_meters":null,"size_class":null,"mass_kg":null,"dimensions":null,"purposes":["comms"],"wikipedia_slug":null,"has_3d_model":false,"image_url":null,"decayed_at":null,"tle_current":{"epoch":"2026-05-24T20:15:04.028832Z","epoch_age_seconds":84628,"freshness":"FRESH","line1":"1 62999U 25031U   26144.84379663  .00016108  00000+0  59331-3 0  9998","line2":"2 62999  43.0031  73.1163 0000584 289.9441  70.1348 15.27595423 72749","mean_motion":15.27595423,"eccentricity":5.84e-5,"inclination_deg":43.0031,"raan_deg":73.1163,"arg_perigee_deg":289.9441,"mean_anomaly_deg":70.1348,"bstar":0.00059331,"rev_number":7274,"period_min":94.265796972082,"perigee_km":482.60222384681,"apogee_km":483.40360498881,"semimajor_km":6861.1399144178,"source":"CELESTRAK","updated_at":"2026-05-25T13:38:19.833938Z"}}}